Location: Newark
(55.2831°N, 38.7366°E)
Time: 15:13:38
(UTC+00:00)

RS-15 - Visible Passes

Search period start: 19 September 2019 00:00
Search period end: 29 September 2019 00:00
Orbit: 1900 x 2144 km, 64.8° (Epoch: 18 September)

Date Brightness Start Highest point End Pass type
(mag) Time Alt. Az. Time Alt. Az. Time Alt. Az.
19 Sep 8.5 00:48:41 10° W 00:59:21 53° N 01:10:02 10° ENE visible
19 Sep 8.4 19:58:16 39° ESE 19:58:16 39° ESE 20:07:35 10° NE visible
19 Sep 7.8 22:06:00 54° SW 22:09:16 87° NW 22:20:18 10° NE visible
20 Sep 8.4 00:13:44 16° W 00:22:53 54° NNW 00:33:36 10° ENE visible
20 Sep 8.5 02:26:27 10° WNW 02:37:19 59° NNE 02:48:12 10° E visible
20 Sep 8.6 19:23:19 31° E 19:23:19 31° E 19:31:20 10° NE visible
20 Sep 7.8 21:31:02 64° SSW 21:33:13 82° SE 21:44:11 10° NE visible
20 Sep 8.3 23:38:46 22° W 23:46:27 58° NNW 23:57:15 10° ENE visible
21 Sep 8.5 01:50:07 10° WNW 02:00:55 56° NNE 02:11:42 10° E visible
21 Sep 8.9 18:48:19 24° E 18:48:19 24° E 18:54:54 10° NE visible
21 Sep 7.7 20:56:03 66° SSE 20:57:15 71° SE 21:08:06 10° NE visible
21 Sep 8.2 23:03:46 29° W 23:10:05 62° NNW 23:20:58 10° ENE visible
22 Sep 8.5 01:13:43 10° WNW 01:24:28 53° N 01:35:12 10° E visible
22 Sep 9.1 18:13:18 18° E 18:13:18 18° E 18:18:10 10° ENE visible
22 Sep 7.8 20:21:01 59° SE 20:21:24 59° ESE 20:32:01 10° NE visible
22 Sep 8.0 22:28:45 38° W 22:33:46 68° NNW 22:44:44 10° NE visible
23 Sep 8.5 00:37:17 10° WNW 00:48:00 52° N 00:58:41 10° ENE visible
23 Sep 9.3 17:38:14 13° E 17:38:14 13° E 17:40:46 10° ENE visible
23 Sep 8.0 19:45:58 49° ESE 19:45:58 49° ESE 19:55:54 10° NE visible
23 Sep 7.9 21:53:41 48° WSW 21:57:32 76° NW 22:08:33 10° NE visible
24 Sep 8.5 00:01:24 12° W 00:11:31 53° N 00:22:13 10° ENE visible
24 Sep 8.4 02:14:53 10° NW 02:25:49 66° NNE 02:36:50 10° ESE visible
24 Sep 8.3 19:10:52 40° ESE 19:10:52 40° ESE 19:19:44 10° NE visible
24 Sep 7.8 21:18:35 58° SW 21:21:23 86° NW 21:32:25 10° NE visible
24 Sep 8.4 23:26:18 17° W 23:35:03 54° N 23:45:47 10° ENE visible
25 Sep 8.4 01:38:36 10° WNW 01:49:29 60° NNE 02:00:24 10° ESE visible
25 Sep 8.5 18:35:43 31° E 18:35:43 31° E 18:43:29 10° NE visible
25 Sep 7.7 20:43:26 67° SSW 20:45:20 84° SE 20:56:20 10° NE visible
25 Sep 8.3 22:51:08 23° W 22:58:37 57° NNW 23:09:25 10° ENE visible
26 Sep 8.5 01:02:18 10° WNW 01:13:05 56° NNE 01:23:54 10° E visible
26 Sep 8.8 18:00:30 24° E 18:00:30 24° E 18:07:05 10° NE visible
26 Sep 7.7 20:08:12 68° SSE 20:09:21 72° SE 20:20:14 10° NE visible
26 Sep 8.2 22:15:55 29° W 22:22:14 61° NNW 22:33:07 10° ENE visible
27 Sep 8.5 00:25:54 10° WNW 00:36:38 54° N 00:47:23 10° E visible
27 Sep 8.1 02:39:22 10° NW 02:50:24 83° NE 03:01:33 10° SE visible
27 Sep 9.0 17:25:12 19° E 17:25:12 19° E 17:30:24 10° ENE visible
27 Sep 7.8 19:32:54 60° SE 19:33:29 61° ESE 19:44:08 10° NE visible
27 Sep 8.1 21:40:35 36° W 21:45:56 67° NNW 21:56:52 10° NE visible
27 Sep 8.5 23:49:27 10° WNW 00:00:10 52° N 00:10:53 10° E visible
28 Sep 8.2 02:03:13 10° NW 02:14:13 74° NE 02:25:21 10° ESE visible
28 Sep 9.1 16:49:47 14° E 16:49:47 14° E 16:53:10 10° ENE visible
28 Sep 7.9 18:57:28 51° ESE 18:57:42 51° ESE 19:08:02 10° NE visible
28 Sep 7.9 21:05:08 42° WSW 21:09:41 75° NW 21:20:42 10° NE visible
28 Sep 8.5 23:12:58 10° W 23:23:42 52° N 23:34:23 10° ENE visible
